Weather History for Houghton, MI

Change the Weather History Date:

Tuesday, January 29, 2013

  Actual Average Record
Temperature  
Mean Temperature 32 °F -  
Max Temperature 34 °F 20 °F 37 °F (1983)
Min Temperature 28 °F 8 °F -12 °F (1972)
Degree Days  
Heating Degree Days 33    
Moisture  
Dew Point 31 °F    
Average Humidity 96    
Maximum Humidity 100    
Minimum Humidity 82    
Precipitation  
Precipitation 0.09 in - - ()
Sea Level Pressure  
Sea Level Pressure 29.56 in    
Wind  
Wind Speed 8 mph (NNE)    
Max Wind Speed 22 mph    
Max Gust Speed 29 mph    
Visibility 5 miles    
Events Fog , Rain    
Averages and records for this station are not official NWS values.
T = Trace of Precipitation, MM = Missing Value Source: NWS Daily Summary

Daily Weather History Graph

Daily Weather History Graph

Search for Another Location

Airport:

Trip Planner

Search our weather history database for the weather conditions in past years. The results will help you decide how hot, cold, wet, or windy it might be!

Date:

Astronomy

Jan. 29, 2013 Rise Set
Actual Time 8:22 AM EST 5:52 PM EST
Civil Twilight 7:49 AM EST 6:25 PM EST
Nautical Twilight 7:12 AM EST 7:02 PM EST
Astronomical Twilight 6:37 AM EST 7:37 PM EST
Moon 9:04 PM EST (1/29) 9:05 AM EST (1/29)
Length of Visible Light 10h 35m
Length of Day
9h 29m
Waning Gibbous, 94% of the Moon is Illuminated
Jan 29
Waning Gibbous
Feb 3
Last Quarter
Feb 10
New
Feb 17
First Quarter
Feb 25
Full

Hourly Weather History & Observations

Time (EST) Temp. Windchill Dew Point Humidity Pressure Visibility Wind Dir Wind Speed Gust Speed Precip Events Conditions
12:24 AM 30.2 °F 26.7 °F 28.4 °F 93% 29.80 in 10.0 mi ESE 3.5 mph - N/A   Overcast
12:50 AM 30.2 °F 26.7 °F 30.2 °F 100% 29.79 in 10.0 mi ENE 3.5 mph - N/A   Overcast
12:53 AM 30.9 °F 27.5 °F 30.0 °F 96% 29.83 in 10.0 mi ENE 3.5 mph - N/A   Overcast
1:49 AM 30.2 °F 25.4 °F 30.2 °F 100% 29.74 in 3.0 mi East 4.6 mph - N/A   Overcast
1:53 AM 30.0 °F 24.1 °F 30.0 °F 100% 29.78 in 2.5 mi East 5.8 mph - N/A   Overcast
2:05 AM 30.2 °F 24.3 °F 30.2 °F 100% 29.72 in 1.2 mi East 5.8 mph - N/A   Overcast
2:31 AM 30.2 °F 21.3 °F 28.4 °F 93% 29.70 in 3.0 mi ESE 10.4 mph - N/A   Overcast
2:53 AM 30.0 °F 21.1 °F 28.9 °F 96% 29.72 in 10.0 mi ESE 10.4 mph - N/A   Overcast
3:39 AM 30.2 °F 20.8 °F 30.2 °F 100% 29.64 in 10.0 mi ESE 11.5 mph - N/A   Overcast
3:53 AM 30.9 °F 20.7 °F 30.0 °F 96% 29.68 in 10.0 mi ESE 13.8 mph - 0.00 in   Overcast
4:36 AM 30.2 °F 18.5 °F 30.2 °F 100% 29.62 in 10.0 mi ESE 17.3 mph - 0.00 in Rain Light Freezing Rain
4:53 AM 30.9 °F 20.2 °F 30.0 °F 96% 29.65 in 7.0 mi ESE 15.0 mph 23.0 mph 0.02 in Rain Light Freezing Rain
5:04 AM 30.2 °F 18.9 °F 30.2 °F 100% 29.61 in 7.0 mi ESE 16.1 mph - 0.00 in Rain Light Freezing Rain
5:42 AM 30.2 °F 19.3 °F 30.2 °F 100% 29.57 in 6.0 mi ESE 15.0 mph - 0.01 in Rain Light Freezing Rain
5:49 AM 30.2 °F 19.3 °F 30.2 °F 100% 29.56 in 6.0 mi ESE 15.0 mph - 0.02 in Rain Light Freezing Rain
5:53 AM 30.9 °F 21.7 °F 30.0 °F 96% 29.60 in 6.0 mi ESE 11.5 mph - 0.02 in Rain Light Freezing Rain
6:22 AM 30.2 °F 19.8 °F 30.2 °F 100% 29.54 in 7.0 mi ESE 13.8 mph 19.6 mph 0.00 in   Overcast
6:53 AM 30.9 °F 22.8 °F 30.9 °F 100% 29.57 in 2.0 mi ESE 9.2 mph - 0.00 in Rain Light Freezing Rain
7:03 AM 30.2 °F 21.9 °F 30.2 °F 100% 29.53 in 1.2 mi East 9.2 mph - 0.00 in Rain Light Freezing Rain
7:14 AM 30.2 °F 23.4 °F 30.2 °F 100% 29.52 in 0.5 mi East 6.9 mph - 0.00 in Fog , Rain Light Freezing Rain
7:21 AM 30.2 °F 24.3 °F 30.2 °F 100% 29.52 in 0.2 mi East 5.8 mph - 0.00 in Fog Light Freezing Fog
7:53 AM 30.9 °F 23.5 °F 30.9 °F 100% 29.53 in 0.2 mi East 8.1 mph - 0.00 in Fog Light Freezing Fog
8:31 AM 32.0 °F 25.6 °F 32.0 °F 100% 29.49 in 0.5 mi East 6.9 mph - N/A Fog Fog
8:42 AM 32.0 °F 26.4 °F 32.0 °F 100% 29.49 in 1.0 mi East 5.8 mph - N/A   Overcast
8:51 AM 32.0 °F 26.4 °F 32.0 °F 100% 29.49 in 1.0 mi East 5.8 mph - 0.00 in   Overcast
8:53 AM 32.0 °F 27.5 °F 32.0 °F 100% 29.53 in 1.0 mi East 4.6 mph - 0.00 in   Overcast
9:02 AM 32.0 °F 26.4 °F 32.0 °F 100% 29.48 in 1.0 mi ENE 5.8 mph - 0.01 in Rain Light Freezing Rain
9:23 AM 32.0 °F 28.7 °F 32.0 °F 100% 29.48 in 2.5 mi East 3.5 mph - 0.02 in Rain Light Freezing Rain
9:37 AM 32.0 °F 26.4 °F 30.2 °F 93% 29.47 in 1.8 mi East 5.8 mph - 0.02 in   Overcast
9:53 AM 32.0 °F 28.7 °F 32.0 °F 100% 29.50 in 1.0 mi NE 3.5 mph - 0.02 in   Overcast
9:58 AM 32.0 °F 28.7 °F 32.0 °F 100% 29.47 in 0.8 mi ENE 3.5 mph - N/A   Overcast
10:18 AM 32.0 °F 28.7 °F 32.0 °F 100% 29.48 in 1.2 mi WNW 3.5 mph - 0.02 in   Overcast
10:35 AM 32.0 °F 27.5 °F 32.0 °F 100% 29.48 in 2.5 mi NW 4.6 mph - 0.02 in   Overcast
10:44 AM 32.0 °F 28.7 °F 32.0 °F 100% 29.47 in 4.0 mi NW 3.5 mph - 0.02 in   Overcast
10:53 AM 33.1 °F 30.0 °F 32.0 °F 96% 29.51 in 6.0 mi WNW 3.5 mph - 0.02 in   Overcast
11:14 AM 33.8 °F - 32.0 °F 93% 29.45 in 4.0 mi Calm Calm - 0.00 in   Overcast
11:30 AM 33.8 °F 30.8 °F 32.0 °F 93% 29.46 in 3.0 mi West 3.5 mph - 0.00 in   Overcast
11:40 AM 33.8 °F 30.8 °F 32.0 °F 93% 29.47 in 2.0 mi West 3.5 mph - 0.00 in   Overcast
11:45 AM 33.8 °F 30.8 °F 32.0 °F 93% 29.46 in 1.8 mi West 3.5 mph - 0.00 in   Overcast
11:53 AM 33.1 °F 30.0 °F 32.0 °F 96% 29.49 in 1.5 mi West 3.5 mph - 0.00 in   Overcast
12:06 PM 33.8 °F 29.6 °F 33.8 °F 100% 29.46 in 3.0 mi West 4.6 mph - 0.00 in   Overcast
12:24 PM 33.8 °F 30.8 °F 33.8 °F 100% 29.45 in 2.5 mi West 3.5 mph - 0.00 in   Overcast
12:30 PM 33.8 °F 29.6 °F 33.8 °F 100% 29.45 in 3.0 mi WSW 4.6 mph - 0.00 in   Overcast
12:49 PM 33.8 °F 28.6 °F 33.8 °F 100% 29.46 in 2.5 mi WSW 5.8 mph - 0.01 in   Overcast
12:53 PM 34.0 °F 28.8 °F 33.1 °F 96% 29.50 in 2.0 mi WSW 5.8 mph - 0.01 in   Overcast
1:18 PM 33.8 °F 25.8 °F 33.8 °F 100% 29.46 in 1.5 mi West 10.4 mph - N/A   Overcast
1:34 PM 33.8 °F 25.3 °F 33.8 °F 100% 29.47 in 3.0 mi West 11.5 mph - N/A   Overcast
1:53 PM 34.0 °F 24.6 °F 33.1 °F 96% 29.50 in 4.0 mi West 13.8 mph - N/A   Overcast
2:46 PM 33.8 °F 22.2 °F 32.0 °F 93% 29.48 in 1.8 mi West 20.7 mph 28.8 mph N/A   Overcast
2:53 PM 33.1 °F 21.2 °F 32.0 °F 96% 29.51 in 1.5 mi West 20.7 mph 28.8 mph N/A   Overcast
3:53 PM 33.1 °F 21.9 °F 32.0 °F 96% 29.53 in 2.5 mi WNW 18.4 mph 27.6 mph N/A   Overcast
4:02 PM 33.8 °F 21.9 °F 32.0 °F 93% 29.49 in 4.0 mi WNW 21.9 mph - N/A   Overcast
4:53 PM 33.1 °F 23.0 °F 32.0 °F 96% 29.55 in 10.0 mi WNW 15.0 mph - N/A   Overcast
5:06 PM 33.8 °F 24.3 °F 32.0 °F 93% 29.52 in 10.0 mi WNW 13.8 mph - N/A   Overcast
5:53 PM 33.1 °F 23.4 °F 32.0 °F 96% 29.57 in 10.0 mi NW 13.8 mph - N/A   Overcast
6:14 PM 33.8 °F 24.8 °F 32.0 °F 93% 29.54 in 10.0 mi NW 12.7 mph - N/A   Overcast
6:21 PM 33.8 °F 24.8 °F 30.2 °F 87% 29.54 in 10.0 mi NW 12.7 mph - N/A   Overcast
6:53 PM 33.1 °F 24.4 °F 28.9 °F 85% 29.59 in 10.0 mi NNW 11.5 mph - N/A   Overcast
7:53 PM 33.1 °F 23.4 °F 28.0 °F 82% 29.59 in 10.0 mi NNW 13.8 mph - N/A   Overcast
8:53 PM 33.1 °F 24.9 °F 28.9 °F 85% 29.61 in 10.0 mi NNW 10.4 mph - N/A   Overcast
9:53 PM 32.0 °F 22.5 °F 28.0 °F 85% 29.60 in 10.0 mi NNW 12.7 mph - N/A   Overcast
10:15 PM 32.0 °F 23.0 °F 28.4 °F 87% 29.57 in 10.0 mi NNW 11.5 mph - N/A   Overcast
10:53 PM 30.9 °F 20.2 °F 27.0 °F 85% 29.64 in 10.0 mi NNW 15.0 mph 23.0 mph N/A   Overcast
11:53 PM 28.9 °F 16.5 °F 25.0 °F 85% 29.61 in 10.0 mi NNW 18.4 mph 26.5 mph N/A   Overcast